Location: Newark
(41.6500°N, 71.4833°W)
Time: 19:38:17
(UTC+00:00)

deb Explorer IX - Visible Passes

Search period start: 22 January 2020 00:00
Search period end: 01 February 2020 00:00
Orbit: 548 x 1101 km, 38.8° (Epoch: 22 January)

Date Brightness Start Highest point End Pass type
(mag) Time Alt. Az. Time Alt. Az. Time Alt. Az.
22 Jan ? 09:14:46 20° S 09:14:46 20° S 09:16:54 10° SSE visible
23 Jan ? 08:53:55 13° SSE 08:53:55 13° SSE 08:54:40 10° SSE visible
26 Jan ? 00:29:48 10° S 00:31:13 14° S 00:31:13 14° S visible
27 Jan ? 00:07:28 10° S 00:10:27 18° SSE 00:10:27 18° SSE visible
27 Jan ? 01:51:46 10° SW 01:51:49 10° SW 01:51:49 10° SW visible
27 Jan ? 23:45:08 10° S 23:49:25 19° SE 23:49:38 19° SE visible
28 Jan ? 01:29:24 10° SW 01:31:01 18° SW 01:31:01 18° SW visible
28 Jan ? 23:22:49 10° S 23:26:59 19° SE 23:28:47 17° ESE visible
29 Jan ? 01:07:03 10° SW 01:10:08 28° SW 01:10:08 28° SW visible
29 Jan ? 23:00:31 10° S 23:04:33 18° SE 23:07:51 13° ESE visible
30 Jan ? 00:44:43 10° SW 00:49:13 40° SSW 00:49:13 40° SSW visible
30 Jan ? 22:38:14 10° S 22:42:07 18° SE 22:46:19 10° E visible
31 Jan ? 00:22:24 10° SW 00:28:13 47° SSE 00:28:13 47° SSE visible
31 Jan ? 02:08:48 10° W 02:09:35 14° WSW 02:09:35 14° WSW visible
